Погода Покровская

Погода Покровская : погода сейчас, прогноз погоды и архив. Всё, что Вы хотите узнать о погоде Покровская!

Хотите узнать прогноз погоды Покровская? Тогда Вам сюда: Погода Покровская

Поиск расширенной информации на нашем сайте:

Другие новости

Новости СМИ2

Главная страница сайта

Новости сайта

03.07.2017

Напоминаем, что на нашем специализированном сайте Метеоцентр.Азия вы можете получить высокодетализированные автоматические прогнозы погоды по пунктам России, СНГ и мира в авиационном формате (включающие направление и скорость ветра, видимость, явления погоды, количество и форму облачности, нижнюю и верхнюю границу облачности).


Погода Покровская - сегодня

Время (UTC), дата Ветер
(°,м/с) 
Видим.   Явления Облачность Т
(°С)
Тd
(°С)
f(%) Тe
(°С)
Pmin
(гПа)
dP
(гПа)
Po
(мм)
O2
(г/м3)
Тmin Tmax R s Состояние
почвы
18 17.05.18 230 (ЮЗ) 20000 м    ясно 
-5.4 -9.6 72 -7  1009.8  0.1  746  307           
21 17.05.18 тихо ()   20000 м    3/0 верхняя 
[Ci fib]
-3.6 -6.5 80 -4  1010  0.3  746  305           
00 18.05.18 050 (СВ) 20000 м    8/0 верхняя 
[Cs]
+6.4 -7.5 36 +5  1009.3  0.1  746  294  -6.4        влажная 
03 18.05.18 080 (В) 20000 м    8/0 верхняя 
[Ci sp]
+10 -8.5 26 +10  1008.3  -0.8  745  290           
06 18.05.18 080 (В) 20000 м    3/0 верхняя 
[Ci fib]
+9.8 -5.9 33 +9  1007.2  -1.1  744  290           
09 18.05.18 070 (В) 20000 м    8/0 верхняя 
[Ci sp]
+10.8 -4.5 34 +11  1006.7  -0.3  744  289           
12 18.05.18 050 (СВ) 20000 м    10/0 средняя 
[As op]
+8.9 -5.4 36 +9  1006.9  0.1  744  291    +12.2       
15 18.05.18 020 (С) 20000 м    10/0 верхняя 
[Cs]
+5.8 -3.2 52 +6  1006.8  -0.3  744  294           
18 18.05.18 150 (ЮВ) 20000 м    8/0 средняя, верхняя 
[Ac trans|Ci sp]
+4.9 -4.5 51 +5  1006.2  -0.6  744  295           
21 18.05.18 040 (СВ) 20000 м    10/6 600 м верхняя 
[Sc|Cs]
+6.6 -3.9 47 +6  1005.9  -0.2  743  293           
00 19.05.18 030 (СВ) 20000 м    10/8 600 м верхняя 
[Sc|Cs]
+9.6 +0.5 53 +10  1005.2  -0.6  743  289  +1.1        влажная 
03 19.05.18 210 (ЮЗ) 10 км  слаб. дождь  10/10 600 м 
[Ns]
+9.3 +6.3 81 +9  1005.9  0.7  744  289           
06 19.05.18 210 (ЮЗ) 20000 м  в посл. час дождь  10/10 600 м 
[Sc]
+8.1 +6.4 89 +7  1006.3  0.4  744  290           
09 19.05.18 130 (ЮВ) 20000 м    9/3 600 м верхняя 
[Sc|Ci fib]
+10.7 +8.3 85 +12  1006.6  0.4  744  287           
12 19.05.18 050 (СВ) 20000 м    10/5 600 м верхняя 
[Sc|Ci fib]
+7.8 +6.5 91 +8  1006.9  0.1  744  290    +12.1     
15 19.05.18 020 (С) 20000 м    10/10 600 м 
[Sc]
+6.6 +5.5 93 +6  1006.6  -0.3  744  292           
18 19.05.18 240 (ЮЗ) 20000 м    10/6 600 м средняя 
[Sc|Ac und]
+5.6 +4.7 94 +6  1006.9  0.2  744  293           
21 19.05.18 310 (СЗ) 10 км  слаб. дождь  10/10 600 м 
[Ns]
+5.8 +4.6 92 +4  1007.8  0.8  745  293           
12 20.05.18 280 (З) 3{13}  20000 м    3/1 1000 м средняя 
[Sc|Ac trans]
+10.2 -3.9 37 +10  1015.6  2.4  751  292    +14.1  0.0     
15 20.05.18 270 (З) 20000 м    8/8 1000 м 
[Sc]
+3.4 -0.7 74 +3  1017.8  1.8  752  299           
18 20.05.18 280 (З) 20000 м    6/0 средняя 
[Ac trans]
+1.5 -1.3 82 +1  1019.6  1.7  753  302           
21 20.05.18 290 (З) 20000 м    3/0 средняя 
[Ac trans]
+4.2 -1.3 67 +3  1020  0.5  754  299           
00 21.05.18 170 (Ю) 20000 м    6/3 600 м верхняя 
[Cu med, cong|Ci fib]
+7.4 +0.6 62 +7  1019.4  -0.3  753  295  -0.4        влажная 
03 21.05.18 180 (Ю) 20000 м    8/3 600 м верхняя 
[Cu med, cong|Ci fib]
+10.6 -1.4 43 +10  1017.4  -1.8  752  292           
06 21.05.18 140 (ЮВ) 20000 м    8/0 средняя, верхняя 
[Ac trans|Cs]
+12.8 -0.6 40 +13  1015.4  -1.9  751  289           
Время (UTC), дата Ветер
(°,м/с) 
Видим.   Явления Облачность Т
(°С)
Тd
(°С)
f(%) Тe
(°С)
Pmin
(гПа)
dP
(гПа)
Po
(мм)
O2
(г/м3)
Тmin Tmax R s Состояние
почвы

Для получения пояснительной информации подведите курсор к названию столбца.

ПОГОДА Покровская - архив

Всё, что Вы хотите узнать о погоде Покровская - удобно и подробно!

Выберите нужную дату (начиная с 1 января 2015* года) и нажмите кнопку "Найти".
Будут отображены архивные сводки погоды по пункту Покровская, начиная с указанной даты.


Отображать данные в формате CSV (для использования в таблицах Excel)


Внимание! Наш архив погоды предназначен исключительно для личного некоммерческого использования в познавательных целях. Если Вам необходимы официальные справки о состоянии погоды (для производственных, юридических, коммерческих и т.п. целей), обращайтесь в органы Росгидромета.

*Примечание: данная дата относится к архиву по метеостанциям СССР (Россия, СНГ, Балтия).
Архив по метеостанциям Зарубежной Европы и Азии (кроме Китая) хранится 10 дней, по другим регионам земного шара (Китай, Африка, Америка, Австралия, Океания) - 1 день.

Покровская - район местоположения метеостанции


Название, широта, долгота, высота метеостанции:
Покровская 61.5°ш. 129.2°д. 115 м над ур. моря [Российская Федерация]

Дополнительная информация

В oтличие oт бoльшинства пoгoдных сайтoв мы публикуем пoдрoбную метеoинфoрмацию в детальнoм прoфессиoнальнoм фoрмате.

Характеристики температуры и влажнoсти вoздуха измеряются на высoте 2 м в тени вдали oт зданий и деревьев.
Скoрoсть ветра измеряется на высoте 10 м (на урoвне рoста челoвека скoрoсть ветра ниже в 1.5-2 раза). Если метеoстанция нахoдится в гoрoде или в лесу, тo скoрoсть ветра занижена на 2-4 м/с пo сравнению с oткрытым местoм. Скoрoсть ветра над акватoриями крупных рек и oзёр, а также на вершинах хoлмoв на 2-5 м/с выше, чем в oбычных услoвиях.
Атмoсфернoе давление в разных тoчках местнoсти мoжет значительнo oтличаться oт давления на метеoстанции, в зависимoсти oт услoвий рельефа (при пoдъёме на 10 м давление пoнижается примернo на 1 мм рт.ст.).